Back to catalog

QIANFAN-141

AliveCommunicationsPO
NORAD 69087·PAYLOAD·🇨🇳 China

Launched May 12, 2026 from Taiyuan Satellite Launch Center

Loading…

Next Passes (next 24 hours)

TLE

FreshSource: Space-Track

Epoch: Sep 14, 2026, 14:04 UTC

1 69087U 26104Q   26257.58672070  .00000027  00000-0  22876-4 0  9998
2 69087  88.9905 332.3185 0002232 113.9492 246.1893 13.51019913 17244

Track QIANFAN-141 in real time with AllMySat

Download on the App Store